STARLINK-31873, 59790

Orbit data source: Space-Track

STARLINK-31873, 59790 is a payload satellite owned by SpaceX/Seattle (US) in LEO that was launched on Sat, 18 May 2024 UTC via an FALCON 9 launch vehicle from the Air Force Eastern Test Range (AFETR). Payload-class satellites include a variety of spacecraft equipped with specific instruments for various scientific and technological missions. These include communications satellites like Starlink; space stations such as the ISS; scientific satellites like the Hubble; Earth observation satellites from companies like Planet Labs, Umbra, and HawkEye 360; GPS; miniature CubeSats for education and research; and military/defense satellites.

Loading next visibility...
Identifier
59790, 2024-093J
Orbit
LEO
Country
Flag of USUS
Related business
Manufacturer
SpaceX/Seattle
Mission
Operational spacecraft
Bus & Motor
STARLINK V2M, Unknown motor
Mass
730 kg wet, ~700 kg dry
Launch date (UTC)
2024-05-18 (1 year ago)
Launch vehicle
FALCON 9
Launch site
Air Force Eastern Test Range (AFETR)
Object type
Payload
Rocket body
Debris
Shape & HBR
Unknown
Radar Cross Section
Large (>1 m²)

Expand to show TLE details & history
Last TLE update: 19 hours ago

TLE from 19 hours ago
0 STARLINK-31873
1 59790U 24093J   25258.03888529  .00004420  00000-0  17015-3 0  9990
2 59790  43.0016 120.7267 0001021 279.0008  81.0728 15.27561232 75834
Epoch: 2025-09-15T00:55Z
TLE epoch observation values (Epoch: 2025-09-15T00:55:59.689Z)
Latitude
-0°
Longitude
112.47872°
Altitude
482.772 km
Speed
7.626 km/s
True Right ascension
08h 02m 54s
True Declination
0° 00' 00"
Sunlit
Object was in daylight at epoch
Visualization orbit readout
Latitude
Unknown
Longitude
Unknown
Altitude
Unknown
Speed
Unknown
Apparent Right ascension
Unknown
Apparent Declination
Unknown
Sunlit
N/A
Visualization observer readout
Local Sidereal Time
12:54:08
Azimuth
Unknown
Elevation
Unknown
Doppler factor
Unknown
Orbital elements
Apogee altitude
485.751 km
Perigee altitude
484.349 km
Semi-major axis
6,863.187 km
Eccentricity
0.0001
Inclination
43.0016°
RAAN
120.7267°
Arg. of periapsis
279.0008°
True anomaly
81.08436°
Mean anomaly
81.0728°
Eccentric anomaly
81.07858°
Mean motion
3.81728 °/min
Orbital period
94.31 mins
BSTAR
0.00017015
Loading maneuver chart data...
Computing Atmospheric mass density...
Loading historical data...
Loading historical data...
Loading historical data...
Loading historical data...
Loading historical data...
Loading historical data...
Loading historical data...

Documentation

Showing up to 5 results
|